Content
SEND FEEDBACK

Daily
Averages
Monthly
Summary
United States of America

ST. LOUIS, MISSOURI


Home > North America > United States > Missouri
Elevation: 535 feet     Latitude: 38 45N     Longitude: 090 22W

WEATHER
 
SELECT A DAY
Number of Records: 199,638;   Date Range: 1/1/95 - 10/20/14
 
SHARE

PRINT THIS DATA

[ ← Previous Day ]
WEATHER ALMANAC - FEBRUARY 11, 2013
[ Next Day → ]
[ °C ]   °F
Weather ElementAverageHighLow
Temperature40.4 °F51.1 °F (3:54 pm)28 °F (11:54 pm)
Dewpoint25 °F27 °F (9:54 am)23 °F (4:54 pm)
Humidity55.9 %82 % (9:54 pm)35 % (3:54 pm)
Barometer30.05 in30.17 in (10:54 pm)29.87 in (1:54 am)
Wind Speed11.5 mph21.9 mph (1:54 pm)
Wind Gust32.2 mph (1:54 am)
Weather ElementAverage
Visibility10 mi
Wind DirectionSSW (203.9 °)

Weather ElementTotal
Precipitation---
Heating Degree Days25.5 (Base 65)
Averaged from 23 records on February 11, 2013
WEATHER CONDITIONS BREAKOUT
WIND DIRECTION BREAKOUT
WEATHER BY HOUR - FEBRUARY 11, 2013
[ °C ]   °F
Local TimeTemperatureDewpointHumidityBarometerVisibilityWind DirectionWind SpeedGust SpeedPrecipitationEventsConditions
1:54 AM41.0 °F25.0 °F53 %29.87 in10.0 miWest (260°)18.4 mph32.2 mphClear
2:54 AM39.2 °F24.8 °F56 %29.90 in10.0 miWest (270°)17.3 mph31.1 mphPartly Cloudy
3:54 AM37.9 °F24.1 °F57 %29.91 in10.0 miWSW (250°)16.1 mph21.9 mphClear
4:54 AM37.9 °F24.1 °F57 %29.92 in10.0 miWest (260°)12.7 mphClear
5:54 AM37.0 °F25.0 °F62 %29.94 in10.0 miWest (260°)15.0 mph27.6 mphClear
6:54 AM37.0 °F25.0 °F62 %29.97 in10.0 miWest (260°)16.1 mph24.2 mphClear
7:54 AM37.4 °F26.6 °F65 %30.01 in10.0 miWest (260°)15.0 mphClear
8:54 AM39.9 °F26.1 °F58 %30.03 in10.0 miWest (270°)15.0 mph23.0 mphPartly Cloudy
9:54 AM43.0 °F27.0 °F53 %30.05 in10.0 miWest (270°)11.5 mph25.3 mphPartly Cloudy
10:54 AM45.0 °F26.1 °F48 %30.06 in10.0 miWest (280°)15.0 mph25.3 mphPartly Cloudy
11:54 AM46.9 °F25.0 °F42 %30.07 in10.0 miWest (260°)16.1 mph21.9 mphClear
12:54 PM48.0 °F25.0 °F41 %30.07 in10.0 miWest (280°)18.4 mph25.3 mphClear
1:54 PM48.9 °F26.1 °F41 %30.06 in10.0 miWSW (250°)21.9 mph25.3 mphClear
2:54 PM50.0 °F26.1 °F39 %30.07 in10.0 miWSW (240°)16.1 mphClear
3:54 PM51.1 °F24.1 °F35 %30.08 in10.0 miWSW (250°)13.8 mphClear
4:54 PM48.9 °F23.0 °F36 %30.07 in10.0 miWest (260°)12.7 mphClear
5:54 PM45.0 °F24.1 °F44 %30.09 in10.0 miWest (260°)8.1 mphClear
6:54 PM41.0 °F25.0 °F53 %30.11 in10.0 miWSW (250°)4.6 mphClear
7:54 PM36.0 °F26.1 °F67 %30.13 in10.0 miCalmClear
8:54 PM33.1 °F25.0 °F72 %30.14 in10.0 miCalmClear
9:54 PM28.9 °F24.1 °F82 %30.16 in10.0 miCalmClear
10:54 PM28.9 °F24.1 °F82 %30.17 in10.0 miCalmClear
11:54 PM28.0 °F23.0 °F81 %30.17 in10.0 miCalmClear
Hourly data recorded from KSUS, located miles away from St. Louis, Missouri







STORIES FROM OUR PARTNERS